N151ND KFYV-KAXX

Flight info

Callsign N151ND
Flight time N/A
Altitude 20000
Route TUL J98 MMB KENTO Q176 CIM
Aircraft B350/L-SBDFGRYZ/LB1

Departure

Time N/A
Airport Drake Field (KFYV)

Arrival

Time 2026-04-29 18:53
Airport Angel Fire Airport (KAXX)
Time Latitude Longitude Altitude Speed Heading
2026-04-29 17:45 36.34131 -99.76246 20201 ft 255 kts 270°
2026-04-29 17:45 36.34179 -99.78424 20200 ft 255 kts 270°
2026-04-29 17:45 36.34228 -99.80619 20199 ft 255 kts 270°
2026-04-29 17:46 36.34275 -99.82822 20201 ft 255 kts 270°
2026-04-29 17:46 36.34324 -99.85024 20205 ft 255 kts 270°
2026-04-29 17:46 36.34387 -99.87227 20198 ft 255 kts 272°
2026-04-29 17:46 36.34577 -99.89419 20200 ft 256 kts 276°
2026-04-29 17:47 36.34867 -99.91599 20195 ft 256 kts 277°
2026-04-29 17:47 36.35159 -99.93754 20192 ft 256 kts 277°
2026-04-29 17:47 36.35457 -99.95941 20192 ft 256 kts 277°
2026-04-29 17:47 36.35756 -99.98119 20189 ft 256 kts 277°
2026-04-29 17:48 36.36055 -100.00300 20184 ft 256 kts 277°
2026-04-29 17:48 36.36353 -100.02478 20182 ft 256 kts 277°
2026-04-29 17:48 36.36648 -100.04656 20182 ft 256 kts 277°
2026-04-29 17:48 36.36940 -100.06806 20179 ft 256 kts 277°
2026-04-29 17:49 36.37236 -100.08986 20177 ft 256 kts 277°
2026-04-29 17:49 36.37531 -100.11165 20177 ft 256 kts 277°
2026-04-29 17:49 36.37824 -100.13339 20176 ft 256 kts 277°
2026-04-29 17:49 36.38116 -100.15520 20172 ft 256 kts 277°
2026-04-29 17:50 36.38408 -100.17694 20166 ft 256 kts 277°
2026-04-29 17:50 36.38702 -100.19878 20163 ft 256 kts 277°
2026-04-29 17:50 36.38989 -100.22024 20164 ft 255 kts 277°
2026-04-29 17:50 36.39281 -100.24204 20163 ft 255 kts 277°
2026-04-29 17:51 36.39571 -100.26379 20162 ft 255 kts 277°
2026-04-29 17:51 36.39861 -100.28557 20166 ft 255 kts 277°
2026-04-29 17:51 36.40151 -100.30731 20168 ft 255 kts 277°
2026-04-29 17:51 36.40440 -100.32909 20168 ft 255 kts 277°
2026-04-29 17:52 36.40729 -100.35084 20171 ft 256 kts 277°
2026-04-29 17:52 36.40922 -100.36529 20169 ft 256 kts 277°
2026-04-29 17:52 36.41304 -100.39415 20174 ft 255 kts 277°
2026-04-29 17:52 36.41592 -100.41591 20174 ft 255 kts 277°
2026-04-29 17:53 36.41878 -100.43770 20179 ft 255 kts 277°
2026-04-29 17:53 36.42164 -100.45939 20181 ft 255 kts 277°
2026-04-29 17:53 36.42451 -100.48115 20183 ft 255 kts 277°
2026-04-29 17:53 36.42736 -100.50288 20189 ft 255 kts 277°
2026-04-29 17:54 36.43019 -100.52437 20186 ft 255 kts 277°
2026-04-29 17:54 36.43303 -100.54605 20191 ft 255 kts 277°
2026-04-29 17:54 36.43587 -100.56777 20193 ft 255 kts 277°
2026-04-29 17:54 36.43871 -100.58949 20194 ft 255 kts 277°
2026-04-29 17:55 36.44155 -100.61125 20197 ft 255 kts 276°
2026-04-29 17:55 36.44437 -100.63296 20199 ft 255 kts 276°
2026-04-29 17:55 36.44717 -100.65445 20201 ft 254 kts 276°
2026-04-29 17:55 36.45000 -100.67616 20200 ft 254 kts 276°
2026-04-29 17:56 36.45281 -100.69788 20202 ft 255 kts 276°
2026-04-29 17:56 36.45563 -100.71964 20203 ft 255 kts 276°
2026-04-29 17:56 36.45845 -100.74144 20200 ft 255 kts 276°
2026-04-29 17:56 36.46128 -100.76328 20202 ft 256 kts 276°
2026-04-29 17:57 36.46412 -100.78522 20199 ft 257 kts 276°
2026-04-29 17:57 36.46693 -100.80693 20202 ft 257 kts 276°
2026-04-29 17:57 36.46975 -100.82887 20199 ft 258 kts 276°
2026-04-29 17:57 36.47258 -100.85087 20199 ft 258 kts 276°
2026-04-29 17:58 36.47540 -100.87292 20197 ft 258 kts 276°
2026-04-29 17:58 36.47822 -100.89497 20193 ft 258 kts 276°
2026-04-29 17:58 36.48103 -100.91695 20194 ft 258 kts 276°
2026-04-29 17:58 36.48382 -100.93894 20192 ft 258 kts 276°
2026-04-29 17:59 36.48663 -100.96101 20191 ft 258 kts 276°
2026-04-29 17:59 36.48943 -100.98309 20185 ft 258 kts 276°
2026-04-29 17:59 36.49220 -101.00488 20182 ft 258 kts 276°
2026-04-29 17:59 36.49499 -101.02691 20182 ft 258 kts 276°
2026-04-29 18:00 36.49778 -101.04892 20179 ft 258 kts 276°
2026-04-29 18:00 36.50057 -101.07098 20181 ft 258 kts 276°
2026-04-29 18:00 36.50337 -101.09313 20173 ft 259 kts 276°
2026-04-29 18:00 36.50616 -101.11523 20170 ft 259 kts 276°
2026-04-29 18:01 36.50894 -101.13736 20167 ft 258 kts 276°
2026-04-29 18:01 36.51172 -101.15945 20164 ft 258 kts 276°
2026-04-29 18:01 36.51445 -101.18125 20163 ft 258 kts 276°
2026-04-29 18:01 36.51722 -101.20336 20167 ft 258 kts 276°
2026-04-29 18:02 36.51998 -101.22546 20166 ft 258 kts 276°
2026-04-29 18:02 36.52274 -101.24758 20167 ft 258 kts 276°
2026-04-29 18:02 36.52550 -101.26975 20170 ft 258 kts 276°
2026-04-29 18:02 36.52822 -101.29159 20168 ft 259 kts 276°
2026-04-29 18:03 36.53098 -101.31372 20173 ft 259 kts 276°
2026-04-29 18:03 36.53373 -101.33590 20175 ft 259 kts 276°
2026-04-29 18:03 36.53647 -101.35804 20175 ft 259 kts 276°
2026-04-29 18:03 36.53921 -101.38019 20178 ft 259 kts 276°
2026-04-29 18:04 36.54195 -101.40236 20181 ft 259 kts 276°
2026-04-29 18:04 36.54469 -101.42456 20174 ft 260 kts 276°
2026-04-29 18:04 36.54739 -101.44656 20181 ft 260 kts 276°
2026-04-29 18:04 36.55013 -101.46880 20184 ft 260 kts 276°
2026-04-29 18:05 36.55286 -101.49103 20183 ft 260 kts 276°
2026-04-29 18:05 36.55560 -101.51330 20185 ft 260 kts 276°
2026-04-29 18:05 36.55828 -101.53530 20182 ft 260 kts 276°
2026-04-29 18:05 36.56101 -101.55757 20183 ft 260 kts 276°
2026-04-29 18:06 36.56372 -101.57987 20181 ft 260 kts 276°
2026-04-29 18:06 36.56644 -101.60213 20179 ft 261 kts 276°
2026-04-29 18:06 36.56916 -101.62447 20178 ft 261 kts 276°
2026-04-29 18:06 36.57186 -101.64680 20174 ft 261 kts 275°
2026-04-29 18:07 36.57453 -101.66883 20172 ft 261 kts 275°
2026-04-29 18:07 36.57725 -101.69127 20170 ft 261 kts 275°
2026-04-29 18:07 36.57994 -101.71358 20167 ft 261 kts 275°
2026-04-29 18:07 36.58265 -101.73597 20163 ft 261 kts 275°
2026-04-29 18:08 36.58535 -101.75836 20161 ft 261 kts 275°
2026-04-29 18:08 36.58801 -101.78046 20154 ft 261 kts 275°
2026-04-29 18:08 36.59070 -101.80284 20150 ft 261 kts 275°
2026-04-29 18:08 36.59338 -101.82532 20145 ft 261 kts 275°
2026-04-29 18:09 36.59606 -101.84770 20142 ft 261 kts 275°
2026-04-29 18:09 36.59874 -101.87007 20138 ft 261 kts 275°
2026-04-29 18:09 36.60141 -101.89246 20133 ft 261 kts 275°
2026-04-29 18:09 36.60406 -101.91486 20128 ft 261 kts 275°
2026-04-29 18:10 36.60633 -101.93707 20126 ft 261 kts 272°
2026-04-29 18:10 36.60756 -101.95957 20120 ft 261 kts 271°
2026-04-29 18:10 36.60846 -101.98211 20122 ft 261 kts 270°
2026-04-29 18:10 36.60932 -102.00466 20120 ft 261 kts 270°
2026-04-29 18:11 36.61023 -102.02733 20120 ft 261 kts 271°
2026-04-29 18:11 36.61120 -102.04990 20120 ft 261 kts 271°
2026-04-29 18:11 36.61221 -102.07218 20122 ft 261 kts 271°
2026-04-29 18:11 36.61326 -102.09479 20120 ft 261 kts 271°
2026-04-29 18:12 36.61427 -102.11735 20121 ft 261 kts 271°
2026-04-29 18:12 36.61534 -102.13993 20119 ft 261 kts 271°
2026-04-29 18:12 36.61647 -102.16255 20120 ft 261 kts 271°
2026-04-29 18:12 36.61758 -102.18520 20122 ft 261 kts 271°
2026-04-29 18:13 36.61865 -102.20752 20121 ft 261 kts 271°
2026-04-29 18:13 36.61971 -102.23015 20116 ft 261 kts 271°
2026-04-29 18:13 36.62077 -102.25278 20118 ft 261 kts 271°
2026-04-29 18:13 36.62183 -102.27539 20119 ft 261 kts 271°
2026-04-29 18:14 36.62287 -102.29800 20117 ft 261 kts 271°
2026-04-29 18:14 36.62391 -102.32059 20116 ft 262 kts 271°
2026-04-29 18:14 36.62500 -102.34329 20115 ft 262 kts 271°
2026-04-29 18:14 36.62614 -102.36558 20114 ft 262 kts 271°
2026-04-29 18:15 36.62722 -102.38825 20117 ft 262 kts 271°
2026-04-29 18:15 36.62825 -102.41097 20115 ft 262 kts 271°
2026-04-29 18:15 36.62928 -102.43363 20112 ft 262 kts 271°
2026-04-29 18:15 36.63029 -102.45628 20111 ft 262 kts 271°
2026-04-29 18:16 36.63130 -102.47893 20111 ft 262 kts 271°
2026-04-29 18:16 36.63231 -102.50153 20110 ft 262 kts 271°
2026-04-29 18:16 36.63331 -102.52416 20111 ft 262 kts 271°
2026-04-29 18:16 36.63431 -102.54652 20110 ft 262 kts 271°
2026-04-29 18:17 36.63531 -102.56914 20109 ft 262 kts 271°
2026-04-29 18:17 36.63633 -102.59189 20111 ft 262 kts 271°
2026-04-29 18:17 36.63732 -102.61458 20112 ft 262 kts 271°
2026-04-29 18:17 36.63831 -102.63731 20111 ft 262 kts 271°
2026-04-29 18:18 36.63929 -102.65968 20111 ft 262 kts 271°
2026-04-29 18:18 36.64028 -102.68236 20111 ft 262 kts 271°
2026-04-29 18:18 36.64129 -102.70504 20111 ft 262 kts 271°
2026-04-29 18:18 36.64231 -102.72771 20108 ft 262 kts 271°
2026-04-29 18:19 36.64331 -102.75044 20112 ft 262 kts 271°
2026-04-29 18:19 36.64428 -102.77310 20112 ft 262 kts 271°
2026-04-29 18:19 36.64524 -102.79578 20113 ft 262 kts 271°
2026-04-29 18:19 36.64620 -102.81848 20118 ft 262 kts 271°
2026-04-29 18:20 36.64716 -102.84119 20123 ft 262 kts 271°
2026-04-29 18:20 36.64810 -102.86357 20130 ft 262 kts 271°
2026-04-29 18:20 36.64904 -102.88625 20131 ft 262 kts 271°
2026-04-29 18:20 36.65000 -102.90897 20137 ft 262 kts 271°
2026-04-29 18:21 36.65095 -102.93165 20139 ft 262 kts 271°
2026-04-29 18:21 36.65189 -102.95434 20146 ft 262 kts 271°
2026-04-29 18:21 36.65282 -102.97701 20147 ft 262 kts 271°
2026-04-29 18:21 36.65374 -102.99973 20150 ft 262 kts 271°
2026-04-29 18:22 36.65467 -103.02246 20149 ft 262 kts 271°
2026-04-29 18:22 36.65560 -103.04515 20154 ft 262 kts 271°
2026-04-29 18:22 36.65651 -103.06784 20154 ft 262 kts 271°
2026-04-29 18:22 36.65743 -103.09049 20160 ft 262 kts 271°
2026-04-29 18:23 36.65835 -103.11320 20158 ft 262 kts 271°
2026-04-29 18:23 36.65925 -103.13586 20160 ft 262 kts 271°
2026-04-29 18:23 36.66014 -103.15829 20159 ft 262 kts 271°
2026-04-29 18:23 36.66104 -103.18101 20159 ft 262 kts 271°
2026-04-29 18:24 36.66193 -103.20371 20154 ft 262 kts 271°
2026-04-29 18:24 36.66282 -103.22641 20152 ft 262 kts 271°
2026-04-29 18:24 36.66370 -103.24911 20150 ft 262 kts 271°
2026-04-29 18:24 36.66457 -103.27176 20147 ft 262 kts 271°
2026-04-29 18:25 36.66545 -103.29448 20146 ft 262 kts 271°
2026-04-29 18:25 36.66632 -103.31715 20140 ft 262 kts 271°
2026-04-29 18:25 36.66718 -103.33958 20132 ft 262 kts 271°
2026-04-29 18:25 36.66806 -103.36254 20132 ft 262 kts 271°
2026-04-29 18:26 36.66890 -103.38492 20123 ft 262 kts 271°
2026-04-29 18:26 36.66976 -103.40764 20117 ft 262 kts 271°
2026-04-29 18:26 36.67062 -103.43031 20112 ft 262 kts 271°
2026-04-29 18:26 36.67148 -103.45298 20107 ft 262 kts 271°
2026-04-29 18:27 36.67233 -103.47573 20103 ft 262 kts 271°
2026-04-29 18:27 36.67316 -103.49810 20095 ft 262 kts 271°
2026-04-29 18:27 36.67401 -103.52101 20090 ft 262 kts 271°
2026-04-29 18:27 36.67479 -103.54342 20088 ft 261 kts 271°
2026-04-29 18:28 36.67561 -103.56605 20092 ft 261 kts 271°
2026-04-29 18:28 36.67643 -103.58862 20085 ft 261 kts 271°
2026-04-29 18:28 36.67725 -103.61125 20088 ft 261 kts 271°
2026-04-29 18:28 36.67803 -103.63382 20081 ft 261 kts 271°
2026-04-29 18:29 36.67882 -103.65640 20080 ft 261 kts 271°
2026-04-29 18:29 36.67935 -103.67137 20083 ft 261 kts 271°
2026-04-29 18:29 36.68041 -103.70154 20073 ft 261 kts 271°
2026-04-29 18:29 36.68121 -103.72413 20077 ft 260 kts 271°
2026-04-29 18:30 36.68199 -103.74639 20075 ft 260 kts 271°
2026-04-29 18:30 36.68277 -103.76893 20076 ft 260 kts 271°
2026-04-29 18:30 36.68354 -103.79147 20071 ft 260 kts 271°
2026-04-29 18:30 36.68431 -103.81395 20068 ft 260 kts 271°
2026-04-29 18:31 36.68507 -103.83648 20064 ft 259 kts 271°
2026-04-29 18:31 36.68583 -103.85889 20068 ft 258 kts 271°
2026-04-29 18:31 36.68632 -103.87370 20073 ft 259 kts 271°
2026-04-29 18:31 36.68732 -103.90345 20072 ft 259 kts 271°
2026-04-29 18:32 36.68784 -103.91863 20074 ft 260 kts 271°
2026-04-29 18:32 36.68934 -103.96346 20055 ft 260 kts 271°
2026-04-29 18:32 36.69007 -103.98599 20058 ft 260 kts 271°
2026-04-29 18:33 36.69080 -104.00856 20056 ft 260 kts 271°
2026-04-29 18:33 36.69152 -104.03107 20054 ft 260 kts 271°
2026-04-29 18:33 36.69224 -104.05360 20060 ft 260 kts 271°
2026-04-29 18:33 36.69296 -104.07618 20060 ft 260 kts 271°
2026-04-29 18:34 36.69369 -104.09842 20067 ft 260 kts 271°
2026-04-29 18:34 36.69417 -104.11360 20069 ft 259 kts 271°
2026-04-29 18:34 36.69509 -104.14335 20070 ft 259 kts 271°
2026-04-29 18:34 36.69579 -104.16582 20103 ft 258 kts 271°
2026-04-29 18:35 36.69648 -104.18823 20108 ft 259 kts 271°
2026-04-29 18:35 36.69717 -104.21039 20112 ft 259 kts 271°
2026-04-29 18:35 36.69786 -104.23289 20116 ft 259 kts 271°
2026-04-29 18:35 36.69854 -104.25535 20131 ft 259 kts 271°
2026-04-29 18:36 36.69923 -104.27779 20144 ft 259 kts 271°
2026-04-29 18:36 36.69991 -104.30022 20152 ft 259 kts 271°
2026-04-29 18:36 36.70059 -104.32275 20152 ft 260 kts 271°
2026-04-29 18:36 36.70125 -104.34491 20164 ft 259 kts 271°
2026-04-29 18:37 36.70190 -104.36735 20180 ft 259 kts 271°
2026-04-29 18:37 36.70257 -104.38988 20182 ft 260 kts 271°
2026-04-29 18:37 36.70323 -104.41236 20188 ft 259 kts 271°
2026-04-29 18:37 36.70387 -104.43484 20194 ft 259 kts 271°
2026-04-29 18:38 36.70451 -104.45727 20200 ft 259 kts 271°
2026-04-29 18:38 36.70517 -104.47985 20191 ft 260 kts 271°
2026-04-29 18:38 36.70581 -104.50238 20189 ft 260 kts 271°
2026-04-29 18:38 36.70643 -104.52464 20190 ft 260 kts 271°
2026-04-29 18:39 36.70706 -104.54717 20189 ft 260 kts 271°
2026-04-29 18:39 36.70769 -104.56968 20190 ft 260 kts 271°
2026-04-29 18:39 36.70831 -104.59224 20195 ft 260 kts 271°
2026-04-29 18:39 36.70891 -104.61448 20187 ft 260 kts 271°
2026-04-29 18:40 36.70952 -104.63698 20166 ft 259 kts 271°
2026-04-29 18:40 36.71012 -104.65943 20165 ft 259 kts 271°
2026-04-29 18:40 36.71072 -104.68192 20154 ft 259 kts 271°
2026-04-29 18:40 36.71135 -104.70442 20149 ft 259 kts 271°
2026-04-29 18:41 36.71312 -104.77188 20119 ft 261 kts 271°
2026-04-29 18:41 36.71370 -104.79461 20103 ft 262 kts 271°
2026-04-29 18:42 36.71472 -104.81744 20094 ft 263 kts 274°
2026-04-29 18:42 36.71707 -104.84016 20071 ft 264 kts 277°
2026-04-29 18:42 36.72010 -104.86274 20059 ft 264 kts 277°
2026-04-29 18:42 36.72302 -104.88504 20054 ft 264 kts 277°
2026-04-29 18:43 36.72597 -104.90760 20032 ft 263 kts 277°
2026-04-29 18:43 36.72893 -104.93030 19844 ft 268 kts 277°
2026-04-29 18:43 36.73206 -104.95377 19400 ft 280 kts 277°
2026-04-29 18:43 36.73544 -104.97809 18967 ft 288 kts 278°
2026-04-29 18:44 36.73885 -105.00295 18545 ft 293 kts 278°
2026-04-29 18:44 36.74204 -105.02796 18115 ft 298 kts 277°
2026-04-29 18:44 36.74524 -105.05369 17631 ft 302 kts 277°
2026-04-29 18:44 36.74853 -105.07973 17150 ft 305 kts 278°
2026-04-29 18:45 36.75099 -105.10609 16683 ft 307 kts 270°
2026-04-29 18:45 36.74881 -105.13231 16307 ft 296 kts 258°
2026-04-29 18:45 36.74387 -105.15699 15875 ft 292 kts 256°
2026-04-29 18:45 36.73884 -105.18143 15400 ft 290 kts 256°
2026-04-29 18:46 36.73399 -105.20587 14904 ft 288 kts 257°
2026-04-29 18:46 36.72944 -105.22982 14401 ft 278 kts 257°
2026-04-29 18:46 36.72516 -105.25244 14004 ft 259 kts 256°
2026-04-29 18:46 36.72042 -105.27315 13562 ft 245 kts 249°
2026-04-29 18:47 36.71172 -105.29081 13160 ft 237 kts 231°
2026-04-29 18:47 36.69806 -105.30160 12665 ft 238 kts 195°
2026-04-29 18:47 36.68142 -105.29991 12354 ft 244 kts 169°
2026-04-29 18:47 36.66554 -105.29391 12280 ft 231 kts 171°
2026-04-29 18:48 36.65027 -105.28936 12246 ft 220 kts 174°
2026-04-29 18:48 36.63567 -105.28543 12036 ft 215 kts 173°
2026-04-29 18:48 36.62089 -105.28154 11705 ft 215 kts 174°
2026-04-29 18:48 36.60640 -105.27782 11577 ft 205 kts 177°
2026-04-29 18:49 36.59306 -105.27663 11533 ft 186 kts 188°
2026-04-29 18:49 36.58018 -105.27786 11311 ft 187 kts 191°
2026-04-29 18:49 36.56714 -105.27873 11069 ft 188 kts 189°
2026-04-29 18:49 36.55408 -105.27962 10818 ft 188 kts 190°
2026-04-29 18:50 36.54100 -105.28072 10583 ft 188 kts 190°
2026-04-29 18:50 36.52808 -105.28178 10317 ft 177 kts 190°
2026-04-29 18:50 36.51630 -105.28272 10138 ft 163 kts 190°
2026-04-29 18:50 36.50513 -105.28363 9938 ft 158 kts 189°
2026-04-29 18:51 36.49467 -105.28452 9743 ft 148 kts 190°
2026-04-29 18:51 36.48461 -105.28538 9540 ft 141 kts 189°
2026-04-29 18:51 36.47499 -105.28614 9293 ft 137 kts 189°
2026-04-29 18:51 36.46571 -105.28689 9093 ft 132 kts 186°
2026-04-29 18:52 36.45660 -105.28763 8877 ft 130 kts 190°
2026-04-29 18:52 36.44755 -105.28836 8681 ft 129 kts 190°
2026-04-29 18:52 36.43852 -105.28902 8471 ft 130 kts 189°
2026-04-29 18:52 36.42993 -105.28954 8342 ft 110 kts 188°
2026-04-29 18:53 36.42346 -105.28991 8352 ft 73 kts 183°
2026-04-29 18:53 36.42087 -105.29004 8359 ft 24 kts 180°
2026-04-29 18:53 36.41984 -105.29011 8362 ft 9 kts 209°
2026-04-29 18:53 36.41972 -105.29072 8362 ft 7 kts 270°
2026-04-29 18:54 36.41972 -105.29081 8362 ft 0 kts 270°
2026-04-29 18:55 36.41973 -105.29097 8362 ft 6 kts 272°
2026-04-29 18:55 36.42010 -105.29136 8361 ft 11 kts
2026-04-29 18:55 36.42062 -105.29133 8360 ft 7 kts
2026-04-29 18:56 36.42078 -105.29105 8359 ft 2 kts 98°